PEGASUS DEB, 24213

Orbit data source: Space-Track

PEGASUS DEB, 24213 is space debris in LEO originally from a launch on Thu, 19 May 1994 UTC launched from the Air Force Western Test Range (AFWTR). Debris objects in space refer to the collection of defunct objects orbiting the Earth. Examples of debris include non-operational satellites, rocket bodies, and fragments generated from explosions, collisions, or faulty payload assembly.

Loading next visibility...
Identifier
24213, 1994-029KL
Orbit
LEO
Country
Flag of USUS
Related business
Manufacturer
Unknown
Mission
Spacecraft
Bus & Motor
Unknown
Mass
Unknown
Launch date (UTC)
1994-05-19 (32 years ago)
Launch vehicle
Unknown
Launch site
Air Force Western Test Range (AFWTR)
Object type
Payload
Rocket body
Debris
Shape & HBR
Unknown shape, 0.1 m
Radar Cross Section
Small (<0.1 m²)

Expand to show TLE details & history
Last TLE update: 12 hours ago

TLE from 12 hours ago
0 PEGASUS DEB
1 24213U 94029KL  26121.45716295  .00005103  00000-0  11577-2 0  9999
2 24213  81.4626 189.1873 0513547 191.4721 167.4379 13.97301241155579
Epoch: 2026-05-01T10:58Z
TLE epoch observation values (Epoch: 2026-05-01T10:58:18.878Z)
Latitude
Longitude
165.2195°
Altitude
1,271.942 km
Speed
7.036 km/s
True Right ascension
12h 36m 44s
True Declination
0° 00' 00"
Sunlit
Object was in full shadow at epoch
Visualization orbit readout
Latitude
Unknown
Longitude
Unknown
Altitude
Unknown
Speed
Unknown
Apparent Right ascension
Unknown
Apparent Declination
Unknown
Sunlit
N/A
Visualization observer readout
Local Sidereal Time
06:47:12
Azimuth
Unknown
Elevation
Unknown
Doppler factor
Unknown
Orbital elements
Apogee altitude
1,274.109 km
Perigee altitude
526.542 km
Semi-major axis
7,278.462 km
Eccentricity
0.05135
Inclination
81.4626°
RAAN
189.1873°
Arg. of periapsis
191.4721°
True anomaly
168.64212°
Mean anomaly
167.4379°
Eccentric anomaly
168.04729°
Mean motion
3.49529 °/min
Orbital period
103 mins
BSTAR
0.0011577
Loading maneuver chart data...
Computing Atmospheric mass density...

Documentation

Showing up to 5 results
|